• Join FlightAware (Why Join?)
  • Login
  • US Flag GB Flag 
07:59 EST


 

Airport Tracker/Info


-or-


 

Live Flight TrackerFlight Track Log ✈ FDX715 ✈ 21-Apr-2013 ✈ KMEM - KMSP

Flight Track Log - Related Links

Times and Time Zones

All times are in EDT time to prevent confusion due to time zone crossing. See the FDX715 flight status page for this flight to view local times or setup timezone preferences in your user account.

Time Position Orientation Groundspeed Altitude Reporting Facility
EDT Latitude Longitude Course Direction KTS MPH feet Rate Location/Type
17:43 35.0500 -89.9667 11° North 171 197 1,500  Level KMEM
17:45 35.1500 -89.9500 North 267 307 6,100 2,880 Climbing KMEM
17:47 35.3319 -89.9142 North 336 387 12,100 2,460 Climbing Memphis Center
17:48 35.4403 -89.8881 11° North 365 420 14,000 2,100 Climbing Memphis Center
17:49 35.6703 -89.8158 11° North  Level FlightAware Approximate
17:49 35.5611 -89.8569 12° North 416 479 16,300  Level Memphis Center
17:50 35.6842 -89.8228 13° North 437 503 19,000 2,400 Climbing Memphis Center
17:51 35.8072 -89.8247 359° North 444 511 21,200 1,920 Climbing Memphis Center
17:52 35.9408 -89.8569 349° North 460 529 22,900 1,260 Climbing Memphis Center
17:53 36.0722 -89.8819 351° North 475 547 23,800 1,440 Climbing Memphis Center
17:54 36.2078 -89.9119 350° North 480 552 25,800 2,400 Climbing Memphis Center
17:55 36.3414 -89.9397 350° North 487 560 28,700 2,700 Climbing Memphis Center
17:56 36.4728 -89.9700 350° North 487 560 31,200 2,400 Climbing Memphis Center
17:57 36.6022 -89.9975 350° North 482 555 33,500 1,380 Climbing Memphis Center
17:58 36.7314 -90.0231 351° North 477 549 34,000 240 Climbing Memphis Center
17:59 36.8606 -90.0508 350° North 472 543 34,000  Level Memphis Center
18:01 37.0967 -90.0961 351° North 468 539 34,000  Level Kansas City Center
18:02 37.2261 -90.1222 351° North 468 539 34,000  Level Kansas City Center
18:03 37.3558 -90.1492 351° North 470 541 34,000  Level Kansas City Center
18:04 37.4847 -90.1783 350° North 472 543 34,000  Level Kansas City Center
18:05 37.6128 -90.2072 350° North 470 541 34,000  Level Kansas City Center
18:06 37.7669 -90.2411 350° North 469 540 34,000  Level Kansas City Center
18:11 38.4840 -90.3980 350° North 467 537 34,000  Level FlightAware
18:12 38.5920 -90.4220 350° North 466 536 34,000  Level FlightAware
18:13 38.6760 -90.4410 350° North 466 536 34,000  Level FlightAware
18:14 38.7650 -90.4610 350° North 466 536 34,000  Level FlightAware
18:14 38.8350 -90.4770 350° North 466 536 34,000  Level FlightAware
18:15 38.9330 -90.5190 342° North 465 535 34,000  Level FlightAware
18:16 39.0300 -90.5650 340° North 465 535 34,000  Level FlightAware
18:16 39.1070 -90.6020 340° North 466 536 34,000  Level FlightAware
18:17 39.1700 -90.6340 339° North 466 536 34,000  Level FlightAware
18:18 39.2760 -90.6860 339° North 467 537 34,000  Level FlightAware
18:18 39.3520 -90.7260 338° Northwest 467 537 34,000  Level FlightAware
18:19 39.4390 -90.7680 340° North 467 537 34,000  Level FlightAware
18:20 39.5320 -90.8150 339° North 465 535 34,000  Level FlightAware
18:20 39.6110 -90.8530 340° North 463 533 34,000 -120 Level FlightAware
18:21 39.6990 -90.8980 339° North 461 531 33,900 -120 Descending FlightAware
18:22 39.7760 -90.9360 339° North 460 529 33,900 60 Level FlightAware
18:23 39.8720 -90.9840 339° North 460 529 34,000 60 Climbing FlightAware
18:23 39.9500 -91.0230 339° North 461 531 34,000  Level FlightAware
18:24 40.0210 -91.0600 338° Northwest 462 532 34,000  Level FlightAware
18:25 40.1170 -91.1090 339° North 464 534 34,000  Level FlightAware
18:25 40.2030 -91.1530 339° North 466 536 34,000  Level FlightAware
18:26 40.3090 -91.2060 339° North 468 539 34,000  Level FlightAware
18:27 40.4330 -91.2690 339° North 467 537 34,000  Level FlightAware
18:28 40.5010 -91.3040 339° North 464 534 34,000 -120 Level FlightAware
18:29 40.5950 -91.3520 339° North 461 531 33,900  Descending FlightAware
18:29 40.6820 -91.3970 339° North 458 527 34,000  Climbing FlightAware
18:30 40.7610 -91.4380 339° North 457 526 33,900 -120 Descending FlightAware
18:31 40.8340 -91.4760 339° North 459 528 33,900  Level FlightAware
18:31 40.9160 -91.5200 338° Northwest 459 528 33,900 60 Level FlightAware
18:32 41.0100 -91.5690 339° North 463 533 34,000 60 Climbing FlightAware
18:33 41.0970 -91.6140 339° North 463 533 34,000  Level FlightAware
18:34 41.1790 -91.6570 338° Northwest 464 534 34,000  Level FlightAware
18:34 41.2580 -91.6990 338° Northwest 464 534 34,000  Level FlightAware
18:35 41.3380 -91.7420 338° Northwest 465 535 34,000  Level FlightAware
18:36 41.4290 -91.7890 339° North 466 536 34,000  Level FlightAware
18:36 41.5160 -91.8350 338° Northwest 465 535 34,000  Level FlightAware
18:37 41.5980 -91.8780 339° North 464 534 34,000  Level FlightAware
18:38 41.6870 -91.9250 338° Northwest 464 534 34,000  Level FlightAware
18:38 41.7700 -91.9710 338° Northwest 465 535 34,000  Level FlightAware
18:39 41.8460 -92.0120 338° Northwest 464 534 34,000  Level FlightAware
18:40 41.9230 -92.0540 338° Northwest 456 525 34,000  Level FlightAware
18:41 42.0150 -92.1030 338° Northwest 454 522 34,000 -480 Level FlightAware
18:41 42.0940 -92.1460 338° Northwest 454 522 33,400 -780 Descending FlightAware
18:42 42.1870 -92.1960 338° Northwest 465 535 32,900 -780 Descending FlightAware
18:43 42.2680 -92.2400 338° Northwest 467 537 32,300 -720 Descending FlightAware
18:43 42.3500 -92.2850 338° Northwest 466 536 32,000 -240 Descending FlightAware
18:44 42.4410 -92.3350 338° Northwest 471 542 32,000  Level FlightAware
18:45 42.5160 -92.3760 338° Northwest 457 526 32,000  Level FlightAware
18:45 42.5800 -92.4210 333° Northwest 417 480 32,000  Level FlightAware
18:46 42.6610 -92.4950 326° Northwest 402 463 32,000  Level FlightAware
18:47 42.7060 -92.5340 328° Northwest 403 464 32,000  Level FlightAware
18:47 42.7640 -92.5880 326° Northwest 390 449 32,000  Level FlightAware
18:48 42.8330 -92.6520 326° Northwest 391 450 32,000  Level FlightAware
18:49 42.8970 -92.7120 326° Northwest 394 453 32,000 -240 Level FlightAware
18:50 42.9690 -92.7790 326° Northwest 391 450 31,700 -660 Descending FlightAware
18:51 43.0580 -92.8610 326° Northwest 386 444 30,800 -900 Descending FlightAware
18:51 43.1080 -92.9070 326° Northwest 383 441 30,300 -480 Descending FlightAware
18:52 43.1980 -92.9930 325° Northwest 379 436 30,000 -180 Descending FlightAware
18:53 43.2470 -93.0400 325° Northwest 379 436 30,000  Level FlightAware
18:54 43.2960 -93.0870 325° Northwest 379 436 30,000  Level FlightAware
18:54 43.3450 -93.1340 325° Northwest 379 436 30,000  Level FlightAware
18:55 43.4060 -93.1930 325° Northwest 379 436 30,000  Level FlightAware
18:56 43.4550 -93.2400 325° Northwest 379 436 30,000  Level FlightAware
18:56 43.5040 -93.2870 325° Northwest 379 436 30,000  Level FlightAware
18:57 43.5530 -93.3340 325° Northwest 379 436 30,000  Level FlightAware
18:58 43.6010 -93.3820 324° Northwest 379 436 30,000  Level FlightAware
18:59 43.6620 -93.4410 325° Northwest 379 436 30,000  Level FlightAware
18:59 43.7110 -93.4880 325° Northwest 379 436 30,000  Level FlightAware
19:00 43.7600 -93.5350 325° Northwest 379 436 30,000  Level FlightAware
19:01 43.8090 -93.5830 325° Northwest 379 436 30,000  Level FlightAware
19:01 43.8580 -93.6300 325° Northwest 379 436 30,000 -4,860 Level FlightAware
19:02 44.0600 -93.0569 325° Northwest 408 470 25,000 -7,320 Descending FAA TRACON SMA TRACON (SMA)
19:02 44.0394 -93.0247 132° Southeast 390 449 25,000  Level FAA TRACON SMA TRACON (SMA)
19:02 44.0136 -93.0014 147° Southeast 367 422 25,000 -600 Level FAA TRACON SMA TRACON (SMA)
19:03 43.9778 -92.9897 167° South 344 396 24,600 -1,080 Descending FAA TRACON SMA TRACON (SMA)
19:03 43.9497 -92.9886 178° South 333 383 24,300 -960 Descending FAA TRACON SMA TRACON (SMA)
19:03 43.9208 -92.9878 179° South 333 383 24,000 -480 Descending FAA TRACON SMA TRACON (SMA)
19:04 43.9067 -92.9886 182° South 334 384 24,000  Level FAA TRACON SMA TRACON (SMA)
19:04 43.8706 -92.9925 184° South 338 389 24,000 -900 Level Minneapolis Center
19:05 43.7697 -92.9903 179° South 334 384 22,900 -960 Descending Minneapolis Center
19:06 43.6814 -92.9869 178° South 326 375 21,900 -1,020 Descending Minneapolis Center
19:07 43.5964 -93.0386 204° Southwest 309 356 20,700 -1,320 Descending Minneapolis Center
19:08 43.6106 -93.1636 279° West 298 343 19,200 -1,440 Descending Minneapolis Center
19:09 43.6986 -93.1978 344° North 331 381 17,800 -1,740 Descending Minneapolis Center
19:10 43.7928 -93.2144 353° North 340 391 15,700 -1,800 Descending Minneapolis Center
19:11 43.8872 -93.2322 352° North 342 394 14,100 -1,740 Descending Minneapolis Center
19:12 43.9211 -93.2369 354° North 366 421 13,400 -2,400 Descending FAA TRACON SMA TRACON (SMA)
19:12 43.9628 -93.2428 354° North 385 443 12,600 -2,100 Descending FAA TRACON SMA TRACON (SMA)
19:12 43.9969 -93.2425 360° North 395 455 12,000 -1,800 Descending FAA TRACON SMA TRACON (SMA)
19:13 44.0308 -93.2381 North 398 458 11,400 -1,980 Descending FAA TRACON SMA TRACON (SMA)
19:13 44.0731 -93.2342 North 395 455 10,700 -1,680 Descending FAA TRACON SMA TRACON (SMA)
19:13 44.1061 -93.2325 North 390 449 10,300 -1,080 Descending FAA TRACON SMA TRACON (SMA)
19:14 44.1389 -93.2292 North 384 442 10,000 -600 Descending FAA TRACON SMA TRACON (SMA)
19:14 44.1789 -93.2250 North 375 432 9,900 -120 Descending FAA TRACON SMA TRACON (SMA)
19:15 44.2425 -93.2197 North 373 429 9,900  Level FAA TRACON SMA TRACON (SMA)
19:15 44.2814 -93.2164 North 365 420 9,900  Level FAA TRACON SMA TRACON (SMA)
19:15 44.3128 -93.2122 North 363 418 9,900  Level FAA TRACON SMA TRACON (SMA)
19:16 44.3436 -93.2094 North 362 417 9,900  Level FAA TRACON SMA TRACON (SMA)
19:16 44.3819 -93.2058 North 358 412 9,900  Level FAA TRACON SMA TRACON (SMA)
19:16 44.4106 -93.2031 North 342 394 9,900  Level FAA TRACON SMA TRACON (SMA)
19:17 44.4381 -93.2006 North 325 374 9,900  Level FAA TRACON SMA TRACON (SMA)
19:17 44.4722 -93.1967 North 318 366 9,900  Level FAA TRACON SMA TRACON (SMA)
19:18 44.5261 -93.1917 North 314 361 9,900 -600 Level FAA TRACON SMA TRACON (SMA)
19:18 44.5594 -93.1881 North 312 359 9,300 -1,380 Descending FAA TRACON SMA TRACON (SMA)
19:18 44.5864 -93.1856 North 313 360 9,000 -1,080 Descending FAA TRACON SMA TRACON (SMA)
19:19 44.6131 -93.1839 North 311 358 8,600 -1,500 Descending FAA TRACON SMA TRACON (SMA)
19:19 44.6447 -93.1908 351° North 304 350 8,000 -1,080 Descending FAA TRACON SMA TRACON (SMA)
19:19 44.6664 -93.2056 334° Northwest 289 333 7,900 -180 Descending FAA TRACON SMA TRACON (SMA)
19:20 44.6875 -93.2194 335° Northwest 273 314 7,900  Level FAA TRACON SMA TRACON (SMA)
19:20 44.7125 -93.2331 339° North 252 290 7,900  Level FAA TRACON SMA TRACON (SMA)
19:20 44.7317 -93.2447 337° Northwest 246 283 7,900  Level FAA TRACON SMA TRACON (SMA)
19:21 44.7508 -93.2572 335° Northwest 244 281 7,900  Level FAA TRACON SMA TRACON (SMA)
19:21 44.7747 -93.2731 335° Northwest 246 283 7,900  Level FAA TRACON SMA TRACON (SMA)
19:21 44.7936 -93.2858 334° Northwest 245 282 7,900  Level FAA TRACON SMA TRACON (SMA)
19:22 44.8119 -93.2994 332° Northwest 245 282 7,900  Level FAA TRACON SMA TRACON (SMA)
19:22 44.8269 -93.3253 309° West 224 258 7,900  Level FAA TRACON SMA TRACON (SMA)
19:22 44.8378 -93.3467 306° West 217 250 7,900  Level FAA TRACON SMA TRACON (SMA)
19:23 44.8481 -93.3681 304° West 214 246 7,900  Level FAA TRACON SMA TRACON (SMA)
19:23 44.8583 -93.3897 304° West 214 246 7,900  Level FAA TRACON SMA TRACON (SMA)
19:23 44.8708 -93.4161 304° West 212 244 7,900  Level FAA TRACON SMA TRACON (SMA)
19:24 44.8811 -93.4381 303° West 215 247 7,900  Level FAA TRACON SMA TRACON (SMA)
19:24 44.8908 -93.4592 303° West 212 244 7,900  Level FAA TRACON SMA TRACON (SMA)
19:24 44.9033 -93.4867 303° West 213 245 7,900  Level FAA TRACON SMA TRACON (SMA)
19:25 44.9128 -93.5075 303° West 209 241 7,900  Level FAA TRACON SMA TRACON (SMA)
19:25 44.9225 -93.5286 303° West 207 238 7,900  Level FAA TRACON SMA TRACON (SMA)
19:25 44.9353 -93.5550 304° West 209 241 7,900  Level FAA TRACON SMA TRACON (SMA)
19:26 44.9447 -93.5753 303° West 206 237 7,900 -180 Level FAA TRACON SMA TRACON (SMA)
19:26 44.9544 -93.5939 306° West 193 222 7,800 -960 Descending FAA TRACON SMA TRACON (SMA)
19:26 44.9658 -93.6172 305° West 187 215 7,300 -1,020 Descending FAA TRACON SMA TRACON (SMA)
19:32 44.9240 -93.3170 305° West 152 175 2,200 -960 Descending FlightAware
19:32 44.9220 -93.3130 125° Southeast 152 175 2,100 -900 Descending FlightAware
19:32 44.9080 -93.2810 122° Southeast 144 166 1,600 -840 Descending FlightAware
19:33 44.8980 -93.2580 122° Southeast 144 166 1,200 -840 Descending FlightAware
19:33 44.8880 -93.2340 120° Southeast 146 168 800 -840 Descending FlightAware